This demonstration page uses our WeatherBlox Daily Observations layout. Learn more.

Hourly Observations for October 31, 2018

Temp ( °F °C ) Dew Point ( °F °C ) Humidity (%) Winds ( mph kmh ) Pressure ( in mb ) Visibility ( mi km ) Precip ( " mm )
12:15 am 00:15 Mostly Cloudy 42 5.8 35 1.7 75 75 WNW 3 6 30.12 1020 10 16.09344 0 0
12:35 am 00:35 Cloudy 43 6 36 2.1 76 76 Calm 30.12 1020 10 16.09344 0 0
12:55 am 00:55 Cloudy 42 5.7 36 2.4 80 80 WNW 3 6 30.12 1020 10 16.09344 0 0
1:15 am 01:15 Cloudy 42 5.8 36 2.2 78 78 WNW 3 6 30.12 1020 10 16.09344 0 0
1:35 am 01:35 Cloudy 42 5.6 36 2 78 78 WNW 3 6 30.12 1020 10 16.09344 0 0
1:55 am 01:55 Partly Cloudy 40 4.7 35 1.8 82 82 Calm 30.12 1020 10 16.09344 0 0
2:15 am 02:15 Clear 39 3.8 35 1.4 85 85 NNW 5 7 30.12 1020 10 16.09344 0 0
2:35 am 02:35 Partly Cloudy 38 3.6 34 1 83 83 NW 6 9 30.12 1020 10 16.09344 0 0
2:55 am 02:55 Mostly Cloudy 40 4.2 34 1.1 80 80 NW 7 11 30.12 1020 10 16.09344 0 0
3:15 am 03:15 Partly Cloudy 39 4 35 1.4 83 83 NW 7 11 30.12 1020 10 16.09344 0 0
3:35 am 03:35 Partly Cloudy 40 4.7 36 2 83 83 NW 6 9 30.12 1020 10 16.09344 0 0
3:55 am 03:55 Partly Cloudy 41 5 36 2.1 82 82 WNW 7 11 30.12 1020 10 16.09344 0 0
4:15 am 04:15 Clear 41 5.1 36 2 81 81 WNW 6 9 30.12 1020 10 16.09344 0 0
4:35 am 04:35 Clear 42 5.3 35 1.9 79 79 WNW 5 7 30.15 1021 10 16.09344 0 0
4:55 am 04:55 Partly Cloudy 42 5.3 36 2 80 80 NW 3 6 30.15 1021 10 16.09344 0 0
5:15 am 05:15 Partly Cloudy 41 5.2 35 1.9 79 79 WNW 3 6 30.15 1021 10 16.09344 0 0
5:35 am 05:35 Partly Cloudy 42 5.5 36 2 78 78 WNW 3 6 30.15 1021 10 16.09344 0 0
5:55 am 05:55 Partly Cloudy 42 5.5 36 2 78 78 WNW 3 6 30.15 1021 10 16.09344 0 0
6:15 am 06:15 Partly Cloudy 41 5.1 36 2.1 81 81 Calm 30.15 1021 10 16.09344 0 0
6:35 am 06:35 Mostly Cloudy 41 5.1 36 2.1 81 81 Calm 30.15 1021 10 16.09344 0 0
6:55 am 06:55 Mostly Cloudy 41 4.8 36 2.3 84 84 Calm 30.15 1021 10 16.09344 0 0
7:15 am 07:15 Cloudy 41 5 36 2.1 82 82 NW 3 6 30.15 1021 10 16.09344 0 0
7:35 am 07:35 Cloudy 40 4.6 36 2.2 85 85 WNW 3 6 30.18 1022 10 16.09344 0 0
7:55 am 07:55 Cloudy 40 4.6 36 2 83 83 WNW 5 7 30.18 1022 10 16.09344 0 0
8:15 am 08:15 Cloudy 40 4.5 35 1.8 83 83 NW 5 7 30.18 1022 10 16.09344 0 0
8:35 am 08:35 Cloudy 40 4.6 35 1.7 82 82 NW 3 6 30.18 1022 10 16.09344 0 0
8:55 am 08:55 Cloudy 40 4.7 36 2 83 83 NW 6 9 30.18 1022 10 16.09344 0 0
9:15 am 09:15 Mostly Cloudy 42 5.6 37 2.5 81 81 NW 5 7 30.18 1022 10 16.09344 0 0
9:35 am 09:35 Partly Cloudy 43 6.2 36 2.3 76 76 NW 3 6 30.18 1022 10 16.09344 0 0
9:55 am 09:55 Sunny 45 7.2 36 2.3 71 71 N 5 7 30.15 1021 10 16.09344 0 0
10:15 am 10:15 Sunny 46 7.6 36 2.2 69 69 NNW 5 7 30.15 1021 10 16.09344 0 0
10:35 am 10:35 Sunny 46 8 35 1.8 65 65 N 5 7 30.15 1021 10 16.09344 0 0
10:55 am 10:55 Partly Cloudy 47 8.5 36 2.1 64 64 NNW 5 7 30.15 1021 10 16.09344 0 0
11:15 am 11:15 Mostly Cloudy 48 8.8 36 2.2 64 64 N 3 6 30.15 1021 10 16.09344 0 0
11:35 am 11:35 Partly Cloudy 49 9.3 35 1.9 60 60 N 7 11 30.15 1021 10 16.09344 0 0
11:55 am 11:55 Sunny 49 9.4 36 2 60 60 NNW 5 7 30.15 1021 10 16.09344 0 0
12:15 pm 12:15 Sunny 50 9.9 37 2.5 60 60 NNW 5 7 30.15 1021 10 16.09344 0 0
12:35 pm 12:35 Sunny 50 10.1 36 2.1 58 58 NNW 5 7 30.15 1021 10 16.09344 0 0
12:55 pm 12:55 Sunny 51 10.8 35 1.4 53 53 NW 3 6 30.09 1019 10 16.09344 0 0
1:15 pm 13:15 Sunny 53 11.7 34 1.2 49 49 NNE 5 7 30.09 1019 10 16.09344 0 0
1:35 pm 13:35 Sunny 54 12.1 34 0.9 47 47 Calm 30.09 1019 10 16.09344 0 0
1:55 pm 13:55 Sunny 55 12.9 33 0.5 43 43 N 5 7 30.09 1019 10 16.09344 0 0
2:15 pm 14:15 Sunny 55 12.6 32 0.2 43 43 WNW 3 6 30.06 1018 10 16.09344 0 0
2:35 pm 14:35 Sunny 56 13.1 32 0.1 41 41 NW 6 9 30 1016 10 16.09344 0 0
2:55 pm 14:55 Sunny 56 13.2 32 0 41 41 Calm 30 1016 10 16.09344 0 0
3:15 pm 15:15 Sunny 55 12.8 32 -0.1 41 41 W 5 7 30.03 1017 10 16.09344 0 0
3:35 pm 15:35 Sunny 55 13 31 -0.3 40 40 Calm 30 1016 10 16.09344 0 0
3:55 pm 15:55 Sunny 56 13.2 32 0 41 41 Calm 30 1016 10 16.09344 0 0
4:15 pm 16:15 Partly Cloudy 56 13.5 31 -0.4 39 39 NNW 5 7 29.97 1015 10 16.09344 0 0
4:35 pm 16:35 Mostly Cloudy 56 13.6 31 -0.5 38 38 NNW 6 9 29.97 1015 10 16.09344 0 0
4:55 pm 16:55 Mostly Cloudy 56 13.5 31 -0.5 38 38 WSW 5 7 29.97 1015 10 16.09344 0 0
5:15 pm 17:15 Partly Cloudy 55 12.5 30 -0.9 40 40 Calm 30 1016 10 16.09344 0 0
5:35 pm 17:35 Sunny 55 12.5 31 -0.7 40 40 Calm 30 1016 10 16.09344 0 0
5:55 pm 17:55 Sunny 54 12.1 31 -0.8 41 41 Calm 30 1016 10 16.09344 0 0
6:15 pm 18:15 Sunny 53 11.4 32 0 46 46 Calm 30 1016 10 16.09344 0 0
6:35 pm 18:35 Sunny 48 9.1 33 0.8 56 56 Calm 30.03 1017 10 16.09344 0 0
7:15 pm 19:15 Clear 47 8.2 32 0.1 57 57 Calm 30.03 1017 10 16.09344 0 0
7:35 pm 19:35 Clear 47 8.2 32 0.2 57 57 Calm 30.03 1017 10 16.09344 0 0
7:55 pm 19:55 Clear 44 6.4 32 0 64 64 Calm 30.03 1017 10 16.09344 0 0
8:15 pm 20:15 Clear 43 5.9 32 0.1 67 67 Calm 30.06 1018 10 16.09344 0 0
8:35 pm 20:35 Clear 42 5.5 32 0 68 68 Calm 30.06 1018 10 16.09344 0 0
8:55 pm 20:55 Clear 40 4.2 32 -0.1 74 74 Calm 30.06 1018 10 16.09344 0 0
9:15 pm 21:15 Clear 40 4.2 32 0 74 74 Calm 30.06 1018 10 16.09344 0 0
9:35 pm 21:35 Clear 42 5.3 31 -0.7 66 66 SW 3 6 30.06 1018 7 11.265408 0 0
9:55 pm 21:55 Clear 42 5.7 30 -1 62 62 SSW 5 7 30 1016 7 11.265408 0 0
10:15 pm 22:15 Clear 34 1 29 -1.6 83 83 Calm 30.09 1019 10 16.09344 0 0
10:35 pm 22:35 Clear 39 3.7 29 -1.5 69 69 SSW 5 7 30.06 1018 10 16.09344 0 0
10:55 pm 22:55 Clear 35 1.9 28 -2 76 76 SSW 3 6 30.06 1018 10 16.09344 0 0
11:15 pm 23:15 Clear 38 3.1 29 -1.8 71 71 SSW 6 9 30.03 1017 10 16.09344 0 0
11:35 pm 23:35 Clear 38 3.3 29 -1.9 69 69 SSW 3 6 30.03 1017 10 16.09344 0 0
11:55 pm 23:55 Clear 35 1.4 28 -2 78 78 S 5 7 30.06 1018 10 16.09344 0 0

Powered by AerisWeather